Location: Zagreb
(45.8000°N, 16.0000°E)
Time: 06:52:43
(UTC+02:00)

Courier 1B - Pass Details

Date: 17 August 2020
Orbit: 962 x 1209 km, 28.3° (Epoch: 27 September)

Event Time Altitude Azimuth Distance (km) Brightness Sun altitude
Rises 18:26:39 0° 238° (WSW) 4,088 11.7 15.1°
Reaches altitude 10° 18:30:23 10° 223° (SW) 3,101 10.8 14.5°
Maximum altitude 18:35:37 20° 180° (S) 2,389 9.6 13.6°
Drops below altitude 10° 18:40:42 10° 136° (SE) 2,997 9.7 12.7°
Sets 18:44:14 0° 120° (ESE) 3,910 10.1 12.1°
